Theta_e
303 301 298 295 296 295 293 292 292 285 286 289 288 288 289 291 292 292 292 297 302 303 304 304 304 303 302 303 303 303 303 303 304 304 305 304 305 306
301 299 296 295 295 295 293 292 293 290 288 288 288 287 288 290 292 291 291 296 299 301 302 303 302 302 301 302 302 302 301 302 302 302 302 303 304 303
300 297 296 295 295 295 294 294 293 293 288 287 288 287 287 288 289 290 290 290 290 298 300 301 301 301 301 301 301 300 300 300 300 299 301 301 301 301
298 296 296 295 294 294 294 294 295 294 291 288 286 286 287 287 287 288 289 289 287 292 297 299 300 300 300 300 300 299 298 297 297 297 298 299 299 299
299 297 297 295 293 293 292 293 293 293 291 289 286 286 286 286 285 286 285 285 287 292 296 298 299 299 300 299 299 297 295 294 295 296 296 296 296 296
299 298 298 295 295 293 293 293 292 291 291 289 287 286 286 286 286 284 284 284 285 288 291 293 295 296 297 297 294 292 292 294 295 295 294 294 294 294
298 297 298 296 297 296 294 292 292 290 290 289 287 286 286 286 285 284 284 284 285 286 285 285 286 287 286 288 287 290 292 293 293 293 292 292 293 293
296 296 297 295 296 298 298 296 295 291 289 289 287 287 287 287 285 285 283 283 283 284 283 284 284 284 284 283 288 290 291 292 291 291 291 291 291 292
298 296 294 295 296 296 298 297 297 297 295 291 289 288 288 287 286 285 285 282 283 283 283 282 283 283 283 283 287 289 290 290 290 290 290 290 290 290
298 297 295 295 296 295 295 293 293 294 293 292 292 291 290 289 289 288 286 285 284 283 282 280 281 282 283 281 286 287 288 288 288 289 289 289 289 289
298 298 297 296 297 297 294 292 291 291 295 295 294 295 295 294 291 288 285 284 281 281 282 280 280 279 280 279 281 286 285 286 287 287 287 287 287 288
298 297 298 297 298 298 295 292 290 290 291 290 291 293 294 294 294 289 286 283 283 279 282 278 278 276 279 281 280 279 279 284 285 285 286 286 286 282
294 294 296 298 298 298 298 293 292 291 293 290 288 286 285 285 284 285 286 285 280 278 282 278 275 276 274 274 278 279 278 279 279 280 283 283 285 284
294 295 295 296 297 297 297 296 295 294 290 288 286 284 283 281 281 281 282 282 282 281 282 277 274 273 269 269 271 276 277 278 278 278 278 281 282 283
296 296 296 296 296 297 296 295 294 290 288 287 285 283 281 280 281 280 280 280 280 281 281 279 275 268 271 269 270 271 275 275 277 277 277 277 277 277
296 296 296 296 296 296 294 294 290 289 288 287 285 281 280 280 279 280 278 279 276 275 280 279 273 270 266 266 268 267 272 268 275 276 276 276 277 277
294 292 291 292 291 291 290 288 288 288 286 283 282 281 280 280 279 280 280 278 276 274 272 273 273 270 269 267 265 265 267 268 274 275 274 273 275 276
292 290 290 290 290 289 289 286 287 287 285 284 284 283 280 280 279 278 277 276 271 268 268 268 267 269 268 268 272 265 264 265 273 274 274 272 273 276
291 290 290 290 290 289 288 287 287 286 285 285 284 283 282 280 278 277 275 272 267 266 264 262 263 262 262 262 266 277 265 265 270 272 273 272 272 274
292 291 290 291 290 289 289 288 287 284 285 283 283 282 281 279 276 275 273 269 268 263 263 260 262 262 263 264 264 266 277 270 265 269 270 273 275 279
292 291 292 291 291 290 289 288 286 285 284 283 282 281 279 278 274 273 272 274 270 263 264 264 263 273 259 259 263 264 265 276 276 271 270 270 269 269
291 291 290 291 290 289 288 286 286 285 283 282 280 279 278 276 274 273 274 273 268 267 264 259 259 259 261 261 260 260 264 267 275 277 279 277 265 266
290 290 290 289 289 288 287 286 286 284 283 281 279 278 277 275 276 275 273 271 269 266 261 262 260 260 257 258 263 258 260 262 263 269 264 277 279 279
Wind_Speed
12 13 9 5 3 4 4 4 7 5 8 5 3 4 5 5 6 5 6 9 12 11 12 10 9 8 9 11 12 12 12 13 16 17 18 20 22 23
8 11 8 4 4 3 2 2 2 5 2 1 3 1 4 4 6 6 6 8 10 10 10 11 11 10 10 11 12 12 12 14 17 17 18 20 22 22
10 12 11 7 7 4 4 2 2 4 4 1 1 1 2 4 4 3 4 5 4 8 10 12 12 10 10 11 12 12 12 15 17 17 18 20 20 22
15 13 13 8 8 5 4 6 4 3 4 5 2 1 2 1 2 3 3 3 4 6 11 11 12 9 9 12 12 11 12 14 15 16 17 18 21 23
16 15 15 14 11 7 5 5 4 3 2 4 5 2 1 1 2 1 3 3 3 8 11 12 12 9 9 10 10 10 10 13 15 15 15 19 21 23
15 15 15 16 16 12 9 7 5 4 3 4 5 3 1 0 1 2 3 1 3 1 5 6 7 7 7 8 7 7 10 13 12 14 17 19 21 23
13 13 13 14 14 15 10 8 8 5 4 4 4 3 3 3 4 3 3 1 2 1 1 1 2 1 1 3 4 6 11 9 12 16 17 20 21 22
13 13 12 15 14 19 17 16 14 10 5 5 4 5 5 4 4 4 4 2 2 0 2 2 0 2 2 2 4 8 7 9 14 16 19 20 20 23
16 14 11 11 15 13 14 16 14 13 9 7 7 6 6 7 7 4 4 3 3 1 1 2 3 3 1 2 6 3 5 13 15 20 20 20 22 24
16 16 16 15 16 16 16 12 11 10 8 5 6 6 4 7 6 6 6 5 3 2 1 1 2 3 3 1 3 1 9 13 17 20 20 20 23 24
14 15 16 16 21 21 14 14 10 7 7 10 8 8 10 12 10 6 4 4 0 1 1 2 2 3 3 2 1 6 9 12 18 19 18 23 24 25
12 14 21 18 25 28 16 13 12 10 10 7 5 6 8 9 14 2 6 4 3 1 2 2 1 2 4 0 2 2 3 13 17 15 21 23 24 10
12 12 12 24 28 28 23 14 13 11 11 9 7 5 4 4 4 4 4 4 3 2 4 3 1 1 1 5 3 2 3 7 5 10 20 22 25 21
14 11 12 25 28 29 23 18 18 16 9 8 8 5 5 4 4 5 5 6 5 4 6 4 3 2 2 3 4 4 5 5 5 10 12 18 23 24
11 14 18 24 24 20 21 18 21 10 10 9 8 5 3 6 7 6 8 10 8 6 4 3 3 2 2 2 4 3 6 4 5 9 12 11 11 11
10 9 12 16 18 14 14 15 8 9 12 11 8 6 7 7 6 4 4 4 3 3 4 4 4 3 1 2 3 3 1 4 8 8 10 14 10 8
12 9 9 10 10 10 9 8 7 9 8 6 9 8 8 8 5 4 4 3 3 3 0 2 2 2 3 4 1 2 3 3 4 8 9 13 12 8
12 11 11 12 13 13 12 10 7 11 7 9 9 9 9 8 8 4 3 3 4 2 2 1 3 3 4 2 5 1 3 3 7 9 8 8 11 11
10 12 12 13 13 13 12 11 11 8 9 9 10 10 9 9 11 7 6 5 3 2 1 1 2 3 3 2 4 7 2 2 5 9 7 6 10 15
13 12 12 12 12 12 12 11 10 10 10 10 10 10 10 11 10 9 7 5 5 2 1 2 3 2 4 3 3 5 5 5 3 7 6 7 12 24
12 11 11 12 11 12 12 11 12 12 11 11 10 10 10 11 9 8 8 13 10 3 3 2 2 1 2 2 4 5 5 9 7 6 6 8 7 5
10 11 11 11 11 11 12 12 11 12 11 10 10 10 9 10 10 10 9 9 4 3 3 1 3 2 4 3 2 5 5 5 9 9 13 9 2 7
10 11 11 11 11 12 12 12 13 12 12 11 11 11 11 10 10 9 8 7 7 5 3 2 2 3 2 1 1 3 5 5 5 9 4 10 17 20
Wind_Direction
204 197 194 165 189 178 152 156 142 160 224 217 200 194 192 183 203 198 204 223 233 242 256 269 267 274 295 298 304 315 321 319 323 327 326 324 322 325
187 187 187 151 176 162 169 150 125 134 177 121 203 181 184 182 198 194 207 218 235 241 250 254 264 270 288 293 300 311 319 318 319 327 326 324 324 325
184 179 185 165 182 176 149 167 153 133 118 96 107 77 119 162 170 190 205 212 232 244 248 253 257 269 284 293 300 313 317 318 322 328 325 324 324 323
185 181 182 167 177 167 157 182 188 140 142 135 117 123 85 142 162 183 229 227 231 250 256 256 258 267 282 290 295 308 315 319 322 323 327 323 324 324
187 185 187 177 172 167 160 190 153 175 61 151 126 97 91 144 134 158 221 239 237 240 251 257 262 265 276 287 297 312 322 319 321 325 325 327 325 322
189 193 190 186 181 173 172 180 150 136 156 106 83 118 119 81 88 166 243 234 272 252 252 255 261 266 283 296 307 319 324 315 323 328 329 328 323 318
185 186 193 191 187 177 176 172 159 168 151 133 107 109 163 170 193 192 178 195 277 242 316 292 316 317 298 291 305 320 308 317 333 329 328 325 320 320
179 183 181 168 169 169 179 173 180 162 171 127 134 179 183 184 169 173 143 110 267 18 74 300 355 284 274 241 318 314 310 332 334 329 327 325 327 323
183 179 171 180 172 177 178 173 179 185 175 156 159 174 169 186 147 159 173 144 197 153 88 302 0 304 251 351 313 300 331 339 336 332 332 332 330 326
187 183 179 177 180 183 181 176 184 183 172 170 169 160 181 164 158 177 157 125 76 107 144 229 355 285 321 266 261 310 352 347 337 334 335 332 328 325
188 186 184 182 178 174 173 176 175 182 141 143 145 152 163 155 160 120 125 118 215 234 75 145 3 286 286 304 292 1 354 340 341 336 336 332 330 327
187 191 190 183 178 177 182 175 180 186 156 131 123 131 138 162 165 143 144 129 134 43 174 125 252 360 324 233 347 4 336 345 342 338 332 334 332 325
185 185 187 183 172 180 188 189 191 150 154 135 128 120 113 114 95 79 112 133 132 103 191 127 139 48 47 310 320 335 353 337 332 325 334 334 331 329
185 182 187 181 176 183 184 184 150 146 139 144 139 144 143 127 110 86 86 78 62 131 131 110 120 127 126 333 281 345 337 330 341 333 334 327 325 326
183 184 181 180 179 184 181 156 150 146 147 155 165 162 138 128 116 101 83 78 72 75 80 76 115 163 135 172 281 319 339 325 340 330 322 324 315 311
167 167 171 175 182 174 161 160 159 161 166 172 162 126 123 131 138 119 101 134 89 50 52 91 106 136 93 223 188 296 257 318 325 331 321 310 309 303
152 147 156 166 163 149 157 159 156 155 160 136 137 142 145 145 132 120 132 112 104 144 135 358 0 181 205 165 321 240 306 288 282 309 319 307 306 310
160 169 170 173 168 159 166 164 167 159 152 142 143 154 153 149 141 129 113 111 121 134 115 10 351 6 10 321 198 264 283 274 309 313 307 295 301 319
176 176 175 179 171 167 167 169 168 168 148 147 153 153 146 142 143 135 126 125 95 107 78 50 44 84 59 4 295 228 203 276 300 307 302 298 296 303
178 179 173 181 177 167 167 167 153 150 157 148 147 150 154 146 141 142 145 132 126 113 78 39 79 120 121 196 256 272 277 275 265 296 299 296 289 289
182 175 176 176 178 170 164 162 155 156 159 153 151 149 146 143 137 136 142 140 131 115 123 145 208 3 137 80 13 310 290 277 295 290 282 301 301 298
173 172 171 173 169 166 158 154 150 152 152 148 144 140 140 140 140 141 143 140 131 138 134 76 354 59 63 96 249 282 303 311 321 320 311 306 261 311
168 168 168 166 163 160 157 158 155 151 151 145 142 141 141 139 137 132 123 122 129 117 109 87 24 45 69 106 282 280 309 303 313 330 306 271 311 305